Portada
METAR-TAF:

METAR-TAF

Aeroports :

Burlington Municipal Airport

Burlington, Wisconsin, Estats Units d'Amèrica

latitud: 42-41-26N, longitud: 088-18-17W, altitud: 237 m

Observació

L'informe es va fer fa 22 minuts, a les 19:55 UTC
Vent 11 kt del Sud-Oest amb ràfegues de 17 kt
Temperatura 1°C
Humitat 69%
Pressió 1021 hPa
Visibilitat: 16.1 km
Cel clar

METAR: KBUU 101955Z AUTO 23011G17KT 10SM CLR 01/M04 A3014 RMK AO2 T00071042

Hora: 14:17 (20:17 UTC)


TAF: manca

Observacions i pronòstics meteorològics de més de 4000 aeroports (METAR i TAF).

Les estacions disponibles són els punts grocs i vermells al mapa.

Posi el ratolí al punt desitjat per veure el nom de l'estació.

Feu clic per veure les observacions i els pronòstics meteorològics.

Per canviar el mapa: feu clic els botons verds amb una creu de color negre per apropar; al botó verd amb un guió per allunyar la imatge; o en les fletxes verdes per a mapes adjacents.


METAR-TAF: